Temp
42 48 52 53 55 62 62 64 60 63 59 66 70 74 73 74 76 81 85 88 88 87 87 87 86 86 85 85 84 83 80 79 78 79 79 79 78 77 78 78 79 79 78 77
36 50 54 54 62 66 67 69 63 64 62 71 73 73 71 74 75 77 84 88 88 88 88 87 87 86 86 85 84 84 81 80 80 79 79 79 79 79 77 77 78 78 78 79
33 51 54 51 56 62 65 71 66 65 68 68 70 69 67 73 78 76 77 82 88 88 88 89 89 88 86 85 86 83 81 81 81 80 79 78 79 79 78 77 78 78 78 79
33 47 42 55 61 62 59 60 61 61 64 70 67 70 70 71 73 74 77 78 77 76 78 88 91 89 89 87 85 84 82 81 81 80 79 79 79 79 79 79 78 78 78 79
32 42 53 53 55 55 52 53 61 60 69 71 72 71 67 71 72 70 71 72 73 74 75 78 79 82 85 84 85 84 83 82 81 81 80 79 78 79 80 80 79 79 80 79
38 39 39 42 53 63 63 46 62 63 61 63 69 55 57 66 70 70 71 71 73 75 77 76 74 77 80 84 84 84 84 83 84 82 81 80 80 80 81 81 81 81 80 81
39 41 44 49 53 62 45 47 61 61 61 60 57 57 61 67 67 69 70 70 71 73 74 74 74 75 74 77 77 79 81 80 81 84 83 82 82 82 81 81 81 80 80 81
34 35 34 50 51 43 49 56 57 57 61 59 59 62 63 64 64 66 66 69 70 69 71 73 74 75 72 73 76 77 78 78 76 77 82 83 81 81 81 81 79 79 78 79
34 37 45 50 48 51 56 54 55 55 57 58 60 60 61 60 61 63 65 66 68 66 67 70 72 72 74 75 73 76 76 75 75 76 79 80 79 79 79 79 79 78 77 77
38 43 44 46 52 53 54 53 55 55 55 58 58 61 59 60 60 61 63 64 66 67 67 66 68 72 73 75 74 73 74 74 73 73 73 73 79 79 79 78 78 78 77 77
39 41 43 48 51 50 49 52 53 55 55 56 58 58 59 59 58 59 60 61 63 63 65 66 67 69 72 74 75 74 72 72 73 73 71 73 69 68 76 78 75 79 79 78
34 41 41 42 48 51 49 49 50 52 54 56 57 58 60 59 58 59 59 59 59 61 63 65 66 68 70 73 73 72 72 72 71 73 72 69 63 58 48 47 46 47 52 68
41 45 45 48 49 51 49 50 52 52 53 54 59 57 58 58 57 58 58 58 58 60 62 63 64 65 68 70 71 70 70 71 72 69 73 68 66 65 63 55 46 44 44 51
46 46 46 52 49 53 52 53 55 55 55 55 59 60 57 57 56 56 57 58 58 60 62 63 64 64 67 68 70 70 70 63 70 73 72 70 69 68 66 64 64 61 51 47
46 50 49 50 50 50 54 54 51 51 52 54 55 57 57 55 54 55 56 58 59 60 61 63 63 64 67 68 69 69 70 69 72 74 72 72 71 68 67 64 61 59 58 53
47 48 48 47 47 49 50 50 49 50 52 54 56 55 56 56 55 55 55 56 55 55 59 62 64 66 67 68 68 69 70 66 64 70 72 72 70 68 67 63 60 60 61 60
43 42 43 43 44 46 48 50 49 50 50 52 54 54 55 55 53 52 53 55 57 58 60 62 64 67 68 68 67 69 69 69 66 67 68 73 71 70 67 66 64 64 63 60
47 46 46 45 44 45 47 50 51 52 51 52 53 53 51 50 48 49 50 53 53 54 56 58 60 60 65 68 68 70 69 70 69 69 68 69 68 68 67 67 65 63 60 56
48 46 46 46 45 46 46 47 49 50 51 50 50 49 50 51 50 50 52 51 51 52 53 57 58 61 63 68 69 70 70 70 67 68 69 65 66 66 65 64 63 62 62 60
48 47 46 45 46 45 45 47 47 48 49 51 50 49 48 49 51 52 51 49 50 52 54 55 55 56 60 67 67 67 67 67 66 64 64 66 64 62 61 56 62 61 60 60
48 47 46 45 44 45 46 46 46 45 46 48 46 46 48 48 49 50 49 48 50 52 53 54 54 55 59 64 66 66 66 65 65 63 60 59 59 58 58 58 57 57 57 59
47 47 47 46 45 45 45 46 46 45 45 45 46 46 46 46 47 48 48 47 50 52 52 52 52 54 55 59 61 61 61 61 59 59 57 55 54 54 53 53 53 52 52 52
48 48 47 46 45 45 46 46 46 45 44 44 44 45 45 45 46 45 44 47 49 50 51 50 52 53 54 54 54 56 57 58 57 57 57 55 54 52 50 49 48 48 48 48
48 48 49 48 47 45 43 45 45 46 46 45 45 46 45 45 45 46 47 48 48 49 49 48 49 51 51 52 53 52 52 52 52 51 51 51 54 52 50 48 46 46 45 44
46 47 47 47 46 45 44 45 45 46 45 45 46 46 47 47 46 46 47 47 47 47 47 49 49 49 49 48 48 50 52 51 51 50 49 47 46 45 45 45 45 44 44 44
45 44 44 46 44 46 47 47 46 47 48 47 47 47 50 49 49 47 46 48 48 48 46 46 46 47 48 47 47 47 47 48 51 51 49 49 47 46 46 45 45 44 44 44
44 45 44 46 47 46 46 47 47 46 47 48 48 50 50 52 51 50 49 52 51 50 49 50 47 47 47 47 47 48 47 46 45 46 48 50 48 46 46 45 45 46 46 46
MSLP
1009.64 1006.64 1003.79 1000.94 999.09 997.22 995.99 995.76 995.92 996.08 995.42 994.49 993.66 992.85 992.43 990.94 991.32 991.95 992.59 993.50 994.71 995.77 996.95 998.01 999.15 1000.14 1001.07 1002.01 1002.99 1004.01 1005.07 1005.79 1006.21 1006.99 1007.59 1008.19 1008.77 1009.33 1009.79 1010.29 1010.72 1011.15 1011.75 1012.17
1008.59 1004.21 1002.11 1000.21 998.04 996.28 995.41 995.08 995.06 995.34 994.85 994.00 993.47 993.15 992.31 991.69 992.02 992.25 992.33 992.98 993.92 994.91 995.85 996.95 997.93 998.91 999.94 1000.91 1001.77 1002.89 1003.74 1004.33 1005.20 1006.06 1006.67 1007.22 1007.78 1008.31 1008.87 1009.36 1009.79 1010.30 1010.73 1011.05
1008.32 1003.63 1001.41 1000.04 998.89 996.85 995.08 995.05 995.53 995.78 994.81 994.32 994.44 995.07 994.90 993.34 992.92 993.22 993.40 993.64 993.86 994.31 995.12 995.99 996.96 997.79 998.97 999.78 1001.08 1002.09 1002.79 1003.47 1004.38 1005.08 1005.77 1006.31 1006.80 1007.39 1007.84 1008.30 1008.76 1009.26 1009.69 1009.99
1008.14 1004.19 1001.67 1000.98 999.74 998.65 997.84 998.06 997.57 996.95 995.83 995.11 996.43 996.21 996.09 995.73 995.14 994.87 994.96 995.14 995.46 995.63 996.11 996.26 996.93 997.71 998.20 999.58 1000.22 1001.03 1001.88 1002.74 1003.40 1004.12 1004.79 1005.33 1006.01 1006.43 1006.87 1007.30 1007.76 1008.21 1008.60 1008.84
1008.36 1004.82 1001.48 1000.50 1000.99 1001.10 1000.39 1000.79 1000.43 998.75 996.81 996.69 996.59 995.67 997.81 998.09 997.63 997.38 996.99 996.83 996.60 996.68 996.68 996.77 997.23 997.50 998.38 999.37 1000.01 1000.51 1001.10 1001.65 1002.16 1002.95 1003.65 1004.35 1004.94 1005.39 1005.66 1006.27 1006.78 1007.11 1007.45 1007.90
1008.74 1006.31 1004.29 1005.58 1003.57 1000.79 999.89 1001.89 1002.12 1001.05 1000.41 999.20 997.55 998.64 1000.93 1000.15 999.50 999.15 998.65 998.17 997.98 997.71 997.77 997.91 998.15 997.64 998.27 998.91 999.55 999.84 1000.01 1000.42 1001.17 1001.92 1002.57 1003.17 1003.66 1004.16 1004.45 1005.07 1005.55 1006.13 1006.41 1006.62
1009.41 1007.55 1006.15 1006.57 1004.18 1001.59 1003.12 1006.75 1004.79 1003.77 1002.93 1002.16 1001.78 1002.53 1002.15 1001.06 1000.53 1000.47 1000.11 999.55 999.07 998.53 998.55 998.73 998.47 998.49 998.98 999.31 999.55 999.75 1000.08 1000.45 1000.96 1001.31 1001.70 1002.19 1002.78 1003.44 1003.94 1004.39 1004.91 1005.24 1005.45 1005.61
1010.51 1008.77 1008.65 1008.09 1006.56 1007.23 1008.28 1007.27 1006.54 1005.68 1004.47 1003.95 1003.50 1003.16 1002.53 1001.86 1001.35 1001.15 1000.95 1000.61 1000.31 999.80 999.52 999.35 999.11 998.95 999.44 999.73 999.69 999.59 999.65 999.96 1000.52 1001.01 1001.42 1001.93 1002.33 1002.84 1003.29 1003.81 1004.21 1004.46 1004.72 1004.80
1012.77 1011.13 1010.56 1010.11 1009.92 1009.13 1008.96 1007.86 1007.51 1006.88 1005.96 1005.24 1003.85 1003.26 1002.87 1002.75 1002.41 1002.29 1001.80 1001.36 1001.15 1000.99 1000.68 1000.25 999.91 999.63 999.83 1000.01 999.70 999.57 999.75 999.93 1000.09 1000.30 1000.63 1001.05 1001.70 1002.31 1002.89 1003.24 1003.47 1003.77 1004.00 1004.05
1012.58 1011.27 1011.03 1010.53 1010.07 1009.27 1009.02 1008.33 1007.91 1007.89 1007.11 1005.65 1004.77 1003.59 1003.31 1002.83 1002.85 1002.90 1002.49 1002.07 1001.83 1001.41 1001.28 1001.27 1000.85 1000.36 1000.15 1000.09 999.96 999.87 999.83 999.88 1000.04 1000.21 1000.51 1000.82 1001.31 1001.85 1002.26 1002.63 1002.93 1003.15 1003.25 1003.29
1013.23 1012.43 1010.99 1009.55 1010.09 1010.57 1008.99 1009.03 1007.69 1007.48 1007.42 1006.37 1005.53 1004.57 1003.54 1003.50 1003.43 1003.25 1002.63 1002.07 1001.68 1001.57 1001.62 1001.69 1001.38 1000.81 1000.43 1000.31 1000.19 1000.31 1000.32 1000.27 1000.06 1000.17 1000.39 1000.73 1001.34 1002.11 1002.13 1002.07 1002.15 1002.39 1002.37 1002.73
1012.90 1013.03 1012.67 1010.77 1010.11 1009.84 1009.97 1009.16 1008.43 1007.88 1006.39 1005.63 1005.71 1004.97 1004.59 1004.07 1003.90 1003.72 1003.53 1003.35 1003.23 1003.00 1002.48 1001.84 1001.31 1000.90 1000.61 1000.60 1000.56 1000.53 1000.47 1000.32 1000.18 1000.06 1000.15 1000.68 1001.50 1002.48 1002.77 1002.67 1002.50 1002.32 1002.07 1002.05
1013.47 1012.62 1011.57 1009.92 1008.71 1009.02 1009.47 1008.56 1007.40 1007.03 1007.33 1006.70 1006.09 1005.93 1005.18 1004.71 1004.48 1004.55 1004.49 1004.33 1004.08 1003.78 1003.23 1002.69 1001.97 1001.08 1000.37 1000.27 1000.44 1000.62 1000.77 1000.60 1000.39 1000.16 1000.06 1000.44 1001.11 1001.67 1002.40 1002.97 1002.77 1002.66 1002.52 1001.85
1013.09 1011.53 1009.99 1008.71 1008.07 1007.27 1006.98 1006.78 1006.19 1006.13 1006.13 1006.40 1005.88 1005.67 1005.50 1005.24 1004.98 1005.01 1004.93 1004.65 1004.26 1003.76 1003.42 1002.80 1002.17 1001.41 1000.62 1000.15 1000.10 1000.21 1000.16 999.96 999.91 999.58 999.62 999.82 1000.07 1000.47 1001.09 1001.85 1002.36 1002.73 1002.93 1002.93
1012.11 1010.84 1010.20 1009.24 1007.93 1007.09 1006.97 1006.63 1006.97 1006.57 1005.86 1005.84 1005.59 1005.24 1005.04 1005.04 1004.94 1004.85 1004.61 1004.31 1003.95 1003.58 1003.07 1002.41 1001.82 1001.07 1000.44 1000.17 1000.13 999.96 999.83 999.52 999.01 998.65 998.61 998.80 999.29 999.91 1000.44 1001.14 1001.79 1002.60 1003.26 1003.46
1012.26 1011.54 1010.32 1009.31 1008.41 1007.21 1005.66 1005.09 1005.29 1005.32 1005.49 1005.67 1004.91 1004.76 1004.73 1004.58 1004.62 1004.41 1004.32 1004.07 1003.91 1003.49 1002.85 1001.54 1000.96 1000.44 1000.10 999.90 999.92 999.71 999.40 999.03 998.51 998.21 997.92 998.16 998.72 999.41 1000.03 1000.79 1001.53 1002.28 1002.96 1003.32
1012.61 1011.33 1010.34 1009.44 1008.77 1007.73 1006.58 1004.99 1004.19 1004.04 1004.29 1004.28 1003.95 1004.07 1004.31 1004.24 1004.15 1004.05 1003.80 1003.37 1002.75 1001.98 1001.26 1000.93 1000.45 1000.05 999.79 999.53 999.57 999.38 999.10 998.75 998.18 997.89 997.51 997.38 997.97 998.70 999.52 1000.28 1001.13 1001.89 1002.57 1003.25
1013.81 1012.99 1012.16 1011.21 1009.84 1008.52 1007.10 1005.84 1005.23 1004.67 1004.36 1003.86 1003.91 1004.00 1004.06 1003.91 1003.84 1003.61 1003.27 1002.54 1001.84 1001.31 1001.02 1000.98 1000.52 999.90 999.37 998.93 998.77 998.74 998.55 998.50 998.07 998.03 997.57 997.86 998.14 998.72 999.21 1000.07 1000.91 1001.57 1002.52 1003.06
1014.13 1013.72 1012.94 1011.97 1010.95 1009.74 1008.47 1007.21 1006.25 1005.54 1004.61 1003.94 1003.67 1003.67 1003.52 1003.28 1002.97 1002.79 1002.65 1002.43 1002.07 1001.63 1001.55 1000.97 1000.06 998.97 998.24 997.85 997.73 997.83 998.05 998.24 998.17 998.18 997.96 997.85 998.92 999.28 999.87 1000.74 1001.54 1002.07 1002.63 1003.05
1014.50 1014.20 1013.67 1013.05 1012.33 1011.33 1010.04 1008.93 1007.92 1006.82 1006.11 1005.31 1004.83 1004.53 1004.36 1004.21 1003.97 1003.57 1003.43 1003.35 1002.97 1002.73 1002.46 1001.69 1000.30 998.97 997.83 996.50 996.40 997.05 997.59 998.12 998.27 998.86 999.15 998.79 998.69 1000.36 1001.15 1001.49 1002.29 1002.63 1003.12 1003.67
1014.59 1014.44 1014.25 1013.86 1013.16 1012.23 1011.22 1010.17 1009.13 1008.37 1007.88 1007.08 1006.46 1006.16 1006.02 1006.02 1005.56 1005.11 1004.46 1004.15 1004.06 1003.82 1002.97 1002.04 1000.95 999.98 998.51 996.95 996.58 996.69 997.91 998.20 998.64 998.57 1000.01 1000.39 1000.38 1001.19 1002.06 1002.73 1003.07 1003.38 1004.01 1004.53
1014.50 1014.33 1014.25 1014.12 1013.75 1013.19 1012.37 1011.52 1010.76 1009.97 1009.20 1008.56 1008.11 1007.66 1007.72 1007.44 1006.83 1006.48 1006.24 1005.71 1005.59 1004.82 1003.58 1002.84 1002.12 1001.19 999.64 999.02 998.38 997.93 998.79 999.03 999.82 999.98 1000.69 1000.81 1002.30 1002.54 1003.20 1003.60 1004.09 1004.38 1004.99 1005.57
1014.22 1014.22 1014.14 1014.15 1013.99 1013.83 1013.41 1012.73 1012.09 1011.51 1010.95 1010.46 1009.95 1009.55 1009.16 1008.93 1008.54 1008.25 1007.29 1007.30 1006.77 1005.11 1004.64 1003.75 1003.87 1002.61 1001.12 1000.34 1000.61 1000.17 1000.23 1000.95 1000.67 1001.27 1001.88 1001.97 1003.02 1003.66 1004.07 1004.62 1005.79 1006.23 1006.35 1006.67
1014.11 1013.97 1013.91 1013.84 1013.79 1013.91 1013.63 1013.13 1012.61 1012.28 1012.06 1011.86 1011.65 1011.38 1010.95 1010.40 1010.20 1009.81 1009.26 1008.85 1007.88 1007.12 1006.22 1005.95 1005.25 1003.85 1002.73 1002.58 1002.31 1002.19 1003.71 1002.86 1002.45 1003.09 1002.91 1003.39 1003.80 1004.93 1005.40 1005.82 1006.94 1007.74 1007.79 1007.91
1014.48 1014.25 1014.03 1013.79 1013.64 1013.60 1013.71 1013.34 1012.91 1012.62 1012.36 1012.21 1011.93 1011.67 1011.33 1011.23 1011.12 1010.97 1010.67 1010.26 1009.57 1008.71 1007.70 1006.99 1006.37 1006.09 1005.32 1004.47 1004.14 1003.79 1005.09 1004.57 1004.99 1004.38 1005.95 1005.17 1005.93 1006.46 1007.35 1007.79 1008.78 1009.09 1008.95 1009.24
1014.80 1014.70 1014.38 1013.99 1013.85 1013.56 1013.37 1013.21 1013.15 1012.92 1012.65 1012.49 1012.08 1011.71 1011.47 1011.40 1011.27 1011.19 1011.15 1010.83 1010.19 1009.59 1009.44 1008.88 1008.47 1008.02 1006.69 1006.59 1006.73 1007.34 1008.29 1007.35 1007.13 1007.73 1007.35 1008.54 1006.55 1007.83 1009.05 1009.61 1009.55 1011.05 1010.62 1010.66
1015.24 1014.94 1014.79 1014.35 1014.00 1013.78 1013.63 1013.72 1013.64 1013.51 1013.13 1012.97 1012.81 1012.48 1012.11 1011.73 1011.59 1011.49 1010.96 1010.41 1010.38 1010.39 1010.58 1010.46 1010.30 1009.31 1008.05 1008.23 1008.82 1009.85 1009.44 1008.77 1009.69 1009.11 1009.33 1010.04 1008.14 1009.54 1010.93 1010.21 1010.59 1011.63 1011.74 1011.58
Wind_Speed
20 24 24 24 22 20 14 14 13 11 10 9 10 11 10 7 9 18 23 28 27 26 24 23 22 21 19 19 20 20 20 20 20 18 17 17 16 16 15 15 14 14 12 10
23 21 18 19 18 13 11 16 8 7 8 9 9 7 4 7 11 12 22 28 28 27 27 25 24 21 20 20 21 20 21 21 18 17 17 17 16 16 15 15 15 14 14 15
9 7 10 2 15 10 4 11 7 16 11 3 3 9 13 6 17 13 9 13 24 26 26 22 22 21 21 20 16 18 19 18 17 17 17 17 17 16 16 16 15 15 14 15
9 9 7 10 19 12 18 21 21 15 12 9 15 16 19 18 15 17 17 16 11 7 6 13 14 15 15 14 18 18 17 17 16 16 17 16 16 16 16 14 15 15 16 16
4 4 3 18 22 16 6 14 21 19 8 18 18 26 20 17 16 13 11 9 8 7 7 10 8 7 12 12 14 15 16 17 17 18 17 17 17 17 16 14 14 15 14 16
9 4 3 10 25 24 6 17 19 22 21 18 10 16 5 9 12 14 14 11 10 9 11 10 6 6 9 13 14 17 17 17 17 16 18 18 18 18 16 15 15 12 14 15
9 6 4 21 25 17 12 10 18 14 12 16 16 4 2 9 15 12 11 14 11 12 13 12 8 8 9 6 6 5 4 6 11 15 17 17 16 14 14 14 13 13 14 13
4 3 3 23 12 9 4 11 15 17 16 6 5 7 9 11 13 14 13 14 13 12 11 11 10 11 8 7 1 2 6 9 9 8 10 10 14 12 13 13 13 13 12 11
4 4 3 9 4 9 9 11 14 16 17 17 6 6 7 8 10 11 13 12 11 9 8 9 10 8 13 11 6 4 2 6 7 8 10 10 12 12 10 12 11 11 10 11
11 3 13 19 12 10 11 15 16 14 16 15 17 7 6 8 9 9 10 11 9 12 12 9 8 8 6 8 9 6 4 2 4 6 6 6 8 9 10 10 10 10 10 10
7 4 21 3 6 13 23 19 22 17 11 14 14 10 7 7 7 7 8 11 11 11 12 10 7 6 6 6 6 7 6 6 4 4 6 5 3 1 7 7 7 10 10 8
8 17 14 21 21 21 16 20 22 16 20 12 11 9 7 5 4 6 8 8 9 8 9 12 11 8 5 5 5 5 6 5 6 5 3 4 5 3 8 5 5 6 8 8
12 15 19 23 23 21 21 21 18 16 13 16 7 8 9 4 2 4 7 7 7 8 8 8 10 11 9 6 4 3 4 5 5 6 4 6 5 7 5 2 8 9 8 5
17 18 10 10 12 13 7 11 12 15 13 12 12 5 6 4 2 1 3 6 7 8 7 8 8 8 9 7 8 7 8 10 6 7 5 6 8 8 6 6 5 2 8 6
21 18 12 11 16 16 10 9 11 14 10 11 6 7 5 4 3 4 5 6 7 7 8 7 7 9 9 7 7 9 8 6 6 7 5 8 7 7 6 5 4 4 3 6
19 20 19 19 18 19 18 12 9 8 8 10 10 8 8 7 6 6 6 5 3 6 9 9 11 11 9 8 7 7 8 12 7 7 5 6 7 7 7 6 6 6 4 5
15 21 21 23 21 20 18 12 9 7 6 6 8 7 6 4 3 2 2 6 7 7 7 9 11 12 12 7 6 7 7 7 7 3 2 7 9 9 7 8 7 6 6 4
13 16 17 18 19 18 19 15 7 9 9 10 8 3 2 3 2 2 2 4 6 8 7 10 11 11 12 11 7 8 7 5 1 1 4 5 6 7 8 9 8 8 5 3
11 16 16 18 20 19 17 17 14 13 12 9 6 8 7 7 6 7 8 11 11 10 12 16 22 14 11 13 11 7 6 3 4 3 4 12 8 8 8 7 6 5 5 5
8 11 14 15 16 18 17 17 17 19 18 14 12 13 12 11 9 10 10 11 12 8 10 12 15 14 16 12 14 6 6 7 9 7 6 8 13 11 9 11 8 7 5 4
5 5 9 12 12 15 16 16 17 20 19 19 18 16 13 12 14 9 13 11 15 13 11 19 16 13 9 7 8 10 8 9 8 12 10 9 10 11 11 8 9 9 8 8
1 3 4 6 10 13 13 14 15 17 20 21 21 19 16 15 13 14 13 12 9 14 11 12 14 23 16 15 7 12 11 10 9 9 9 12 10 9 9 9 9 10 9 9
1 1 1 1 4 6 8 11 13 15 17 18 19 19 16 12 11 10 12 15 10 19 12 15 23 26 26 15 12 14 12 10 11 11 10 12 12 11 10 12 10 9 9 9
5 5 1 4 3 1 6 7 7 6 7 11 12 12 11 9 10 10 10 15 22 17 16 18 21 27 26 15 16 19 14 11 12 11 13 15 13 12 11 12 11 9 10 11
6 7 6 7 4 1 4 2 2 3 5 5 3 3 5 2 6 4 7 9 13 14 12 21 25 24 12 14 15 16 16 13 14 14 13 13 13 13 12 11 10 9 10 10
5 3 3 5 2 3 4 2 2 2 2 6 6 6 3 0 3 3 2 4 9 8 9 10 11 11 13 14 15 15 13 10 12 11 13 7 13 12 11 9 11 8 8 8
4 7 6 7 5 4 4 5 5 5 4 4 6 7 5 5 3 2 2 3 9 10 10 7 5 10 11 12 13 10 10 12 14 11 9 5 10 11 7 9 9 6 5 6
Wind_Direction
268 274 273 264 265 271 209 203 190 216 208 241 254 271 256 173 138 157 175 179 181 183 186 188 189 193 195 194 189 186 189 194 200 199 200 200 200 203 207 207 211 212 206 200
287 263 238 243 249 240 250 206 144 190 243 226 254 292 62 111 109 154 171 177 179 183 184 186 188 192 192 192 192 187 191 198 199 197 198 202 203 202 203 207 210 209 211 210
265 304 286 187 350 11 291 182 154 217 221 123 92 360 5 68 96 97 117 167 183 183 185 187 189 189 192 193 182 189 195 198 197 198 199 201 202 203 206 205 206 210 211 214
266 301 165 120 28 37 64 34 17 356 334 109 108 77 46 30 54 78 84 85 76 86 128 193 193 192 194 178 185 191 192 195 197 196 200 201 201 205 210 209 208 208 214 216
260 284 249 22 5 347 15 38 11 360 96 115 115 74 39 23 33 43 50 57 77 73 74 80 85 156 164 178 192 192 196 197 195 193 197 198 202 204 208 209 210 213 213 216
313 300 27 2 337 329 133 39 11 15 22 20 8 81 7 347 36 37 36 35 44 60 65 66 50 81 148 181 190 201 201 200 198 192 198 201 203 204 207 208 212 211 217 218
292 256 90 354 352 359 59 19 358 8 16 35 53 39 291 35 37 38 40 36 23 42 58 44 36 68 78 114 195 208 194 189 199 202 202 204 206 204 206 208 212 214 218 220
309 2 66 351 9 57 283 344 359 350 0 25 55 43 35 34 31 24 23 35 32 32 35 33 35 45 44 35 322 159 181 177 180 188 202 203 203 203 206 205 209 214 217 224
337 275 51 341 341 269 305 346 354 352 342 347 23 22 40 33 28 19 17 20 30 37 24 23 22 35 31 358 311 299 186 200 202 194 192 188 192 195 198 203 209 213 216 224
322 79 345 318 306 269 332 331 333 333 327 339 351 0 29 39 26 19 10 12 5 22 27 16 7 18 23 22 12 330 292 248 217 199 198 189 191 191 196 201 208 215 218 223
283 284 318 305 333 325 318 314 309 313 312 324 342 353 28 20 24 6 4 3 1 10 6 353 346 2 10 12 25 17 355 322 303 220 209 188 138 209 209 204 214 208 217 213
311 311 281 277 291 293 292 291 290 297 305 311 336 328 331 354 11 14 3 357 354 339 348 340 337 337 5 18 21 10 346 334 316 295 209 174 170 144 48 31 5 301 261 223
305 296 289 277 268 269 268 273 278 279 265 279 297 312 313 295 344 17 4 344 339 313 311 317 317 323 325 337 351 329 287 275 278 264 214 181 181 181 173 63 74 51 14 240
315 315 306 311 294 273 249 260 275 283 274 253 250 239 274 271 227 31 333 297 295 301 288 291 292 300 297 311 310 297 286 272 257 264 209 192 193 193 170 172 175 144 38 34
340 347 344 345 348 333 296 262 236 254 258 260 241 245 241 260 267 257 258 267 286 296 291 285 285 285 284 286 273 289 290 268 280 262 211 199 189 175 167 147 125 122 119 62
348 360 0 3 354 344 322 299 255 244 230 252 234 226 226 192 211 242 265 275 297 278 272 297 294 283 275 288 277 285 286 274 270 267 218 184 173 166 157 143 140 143 144 137
354 357 359 1 353 348 343 295 277 287 268 252 261 257 247 253 205 131 294 275 262 272 281 285 291 291 279 263 243 263 268 277 305 263 189 191 173 167 153 147 149 142 136 149
11 3 358 356 354 351 354 5 345 319 290 251 233 232 109 74 92 59 11 337 11 353 352 336 305 289 276 252 233 251 245 254 264 259 105 92 121 129 136 135 137 134 136 149
26 10 1 7 2 359 8 10 16 15 360 358 59 66 60 44 37 47 40 32 24 14 344 331 322 310 248 236 213 218 218 182 75 43 113 108 82 88 97 98 106 107 123 116
19 24 13 7 8 5 10 19 26 33 28 31 42 43 38 26 24 41 45 40 19 356 329 349 355 339 313 231 201 167 138 145 113 83 61 85 108 95 83 87 89 82 81 58
4 32 29 20 11 14 15 20 26 31 33 36 37 33 33 31 30 28 47 41 8 351 12 20 17 355 332 10 104 110 120 128 109 115 100 87 77 84 91 77 81 78 66 61
30 7 29 32 38 30 17 21 30 35 33 30 28 30 28 25 27 35 34 42 357 356 35 29 25 18 22 25 62 94 86 90 100 94 102 92 85 84 81 78 72 67 67 62
91 182 210 63 64 59 44 38 35 43 43 35 29 25 20 23 20 15 27 13 1 21 30 36 22 30 40 43 43 46 69 73 88 90 100 94 92 83 83 78 66 61 63 63
347 10 233 205 194 33 61 63 69 50 68 71 58 43 31 21 23 10 15 7 13 19 30 33 23 31 42 39 40 53 37 41 70 64 66 71 77 75 70 74 73 63 61 57
24 24 13 10 20 141 185 248 19 17 41 26 93 125 110 127 75 29 16 16 4 18 20 31 32 34 45 43 39 43 49 23 45 54 45 66 72 69 62 67 59 62 70 68
45 27 338 19 336 17 23 73 54 12 17 21 359 359 89 284 346 357 317 24 45 51 46 27 20 26 51 49 48 50 42 29 36 52 67 31 81 77 72 69 70 44 51 58
10 25 12 9 5 2 51 56 56 28 34 45 37 18 13 22 102 129 318 44 80 59 38 32 31 40 46 54 52 46 55 47 50 48 48 33 69 79 90 83 85 81 70 68